Weather in Sihanoukville

Cambodia     10°37′29″N   103°32′01″E
temp.,
°C
wind,
m/s
gust,
m/s
humid.,
%
clouds,
%
prec.,
mm/h
press.,
hPa
HPBL,
m
23 april, fri
fri2301:00+29wsw3374100 0.4 1008581
04:00+29wsw5675100 3.2 1007541
07:00+30w4570100 3.3 1008994
10:00+29w4473100 2.8 1010510
13:00+28w7778100 9.0 1008540
16:00+28wsw7780100 2.6 1007535
19:00+28wsw5577100 8.6 1008541
22:00+29wsw347198 0.1 1009530
24 april, sat
sat2401:00+29w3572100 0.3 1008554
04:00+29w5671100 0.6 1007931
07:00+29wnw567386 2.2 1009844
10:00+29w457194 4.9 1010642
13:00+28w5676100 8.5 1008455
16:00+29wsw5670100 4.6 1007591
19:00+29wsw6764100 4.6 1008716
22:00+29wnw3464100 0.0 1010693
25 april, sun
sun2501:00+29w347078 0.0 1008522
04:00+29w5669100 0.0 1007910
07:00+28sw4576100 5.6 1010320
10:00+29w5572100 4.1 1011675
13:00+29w667088 5.3 1010708
16:00+29wnw556796 0.0 1008699
19:00+29wnw4570100 0.0 1009761
22:00+29w2369100 0.0 1010637
26 april, mon
mon2601:00+29w346986 0.0 1009658
04:00+29w457196 0.0 1008829
07:00+29wnw457096 0.0 1010958
10:00+30wnw4570100 0.0 1011920
13:00+30w5573100 0.4 1009817
16:00+30w667115 0.6 1007685
19:00+30w457082 0.6 1008816
22:00+30w44715 0.0 1010809
27 april, tue
tue2701:00+29w447285 0.0 1009817
04:00+29w337473 0.0 1008743
07:00+29w2371100 0.0 1010784
10:00+30wsw326882 0.0 1011893
13:00+30wsw326352 0.2 1009800
16:00+30wsw3362100 0.0 1008834
19:00+30wsw3367100 0.0 1008697
22:00+30wsw226799 0.0 1011667